EW2345 Weather Reports


time (UTC)temp
F
wind
direction
speed
knots
gust
knots
rain 1hr
in
rain 24hr
in
rain mn
in
humidity
%
barometer
mb
20260508100409 56 241 3.5 6.1 0.00 0.05 0.05 87 1010.0
20260508095911 57 247 3.5 7.0 0.00 0.05 0.05 88 1010.0
20260508095410 57 241 4.3 6.1 0.00 0.05 0.05 87 1010.0
20260508094909 57 242 5.2 7.8 0.00 0.05 0.05 86 1009.9
20260508094410 57 221 4.3 7.0 0.00 0.05 0.05 90 1009.8
20260508093909 57 211 2.6 5.2 0.00 0.05 0.05 92 1009.7
20260508093409 56 210 2.6 5.2 0.00 0.05 0.05 94 1009.7
20260508092910 54 210 2.6 5.2 0.00 0.05 0.05 94 1009.7
20260508092409 54 205 3.5 5.2 0.00 0.05 0.05 95 1009.7
20260508091909 54 187 4.3 5.2 0.00 0.05 0.05 95 1009.8
20260508091409 54 86 0.9 2.6 0.00 0.05 0.05 93 1009.8
20260508090909 54 86 0.0 0.0 0.00 0.05 0.05 95 1009.7
20260508085409 53 86 0.0 0.9 0.00 0.05 0.05 95 1009.7
20260508084909 53 86 0.0 0.0 0.00 0.05 0.05 95 1009.7
20260508084409 52 86 0.0 0.0 0.00 0.05 0.05 97 1009.7
20260508083909 52 86 0.9 1.7 0.00 0.05 0.05 98 1009.6
20260508083409 52 86 0.9 2.6 0.00 0.05 0.05 98 1009.6
20260508082911 51 86 0.9 4.3 0.00 0.05 0.05 99 1009.7
20260508082409 51 87 0.9 2.6 0.00 0.05 0.05 99 1009.7
20260508081409 51 87 0.0 0.9 0.00 0.05 0.05 99 1009.6
20260508080909 50 87 0.0 0.0 0.00 0.05 0.05 99 1009.6
20260508080409 50 87 0.0 1.7 0.00 0.05 0.05 99 1009.5
20260508075910 50 87 0.9 1.7 0.01 0.05 0.05 99 1009.6
20260508075409 50 87 0.9 2.6 0.01 0.05 0.05 99 1009.6
20260508074910 49 87 0.9 2.6 0.02 0.05 0.05 99 1009.5
20260508074410 49 86 0.0 0.0 0.03 0.05 0.05 99 1009.5
20260508073909 49 86 0.0 1.7 0.04 0.05 0.05 99 1009.3
20260508073410 49 86 0.9 2.6 0.05 0.05 0.05 99 1009.3
20260508072911 49 11 0.0 4.3 0.05 0.05 0.05 99 1009.2
20260508072409 49 5 2.6 6.1 0.05 0.05 0.05 99 1009.2
20260508071909 49 334 2.6 8.7 0.05 0.05 0.05 99 1009.2
20260508071409 49 37 5.2 7.0 0.05 0.05 0.05 99 1008.9
20260508070910 49 47 1.7 4.3 0.05 0.05 0.05 98 1008.9
20260508070409 49 51 2.6 6.1 0.05 0.05 0.05 98 1009.0
20260508065910 49 52 1.7 4.3 0.04 0.04 0.04 98 1009.1
20260508065409 49 276 0.9 1.7 0.04 0.04 0.04 98 1009.3
20260508064909 49 276 0.9 1.7 0.03 0.03 0.03 98 1009.7
20260508063910 48 276 0.0 1.7 0.01 0.01 0.01 98 1009.7
20260508063409 48 276 0.9 2.6 0.00 0.00 0.00 98 1009.6
20260508062910 48 276 0.0 0.0 0.00 0.00 0.00 98 1009.5
20260508062409 48 276 0.0 0.0 0.00 0.00 0.00 98 1009.4
20260508061909 48 276 0.0 0.0 0.00 0.00 0.00 98 1009.4
20260508060909 48 276 0.0 0.9 0.00 0.00 0.00 98 1009.3
20260508060409 48 276 0.9 2.6 0.00 0.00 0.00 98 1009.2
20260508055910 48 276 0.0 2.6 0.00 0.00 0.00 98 1009.2
20260508055410 48 276 2.6 2.6 0.00 0.00 0.00 98 1009.0
20260508054910 48 276 0.0 0.0 0.00 0.00 0.00 98 1009.3
20260508054410 48 276 0.0 0.0 0.00 0.00 0.00 97 1009.1
20260508053409 48 276 0.0 1.7 0.00 0.00 0.00 98 1009.0
20260508052910 48 276 0.0 2.6 0.00 0.00 0.00 98 1009.0
20260508052410 48 276 0.0 1.7 0.00 0.00 0.00 97 1008.8
20260508051909 48 276 0.9 2.6 0.00 0.00 0.00 97 1008.8
20260508051409 48 276 2.6 4.3 0.00 0.00 0.00 97 1008.8
20260508050909 48 276 1.7 4.3 0.00 0.00 0.00 97 1008.8
20260508050410 48 276 4.3 5.2 0.00 0.00 0.00 97 1008.9
20260508045910 48 276 4.3 5.2 0.00 0.00 0.00 97 1008.8
20260508045409 48 276 4.3 5.2 0.00 0.00 0.00 97 1008.6
20260508044910 48 276 2.6 2.6 0.00 0.00 0.00 97 1008.4
20260508044410 48 276 0.9 4.3 0.00 0.00 0.00 97 1008.5
20260508043410 48 276 3.5 4.3 0.00 0.00 0.00 97 1008.5
20260508042910 48 276 4.3 4.3 0.00 0.00 0.00 97 1008.6
20260508042409 48 276 2.6 4.3 0.00 0.00 0.00 97 1008.6
20260508040909 48 277 5.2 5.2 0.00 0.00 0.00 97 1008.5
20260508040409 48 38 4.3 4.3 0.00 0.00 0.00 97 1008.6
20260508035911 48 38 3.5 4.3 0.00 0.00 0.00 97 1008.8
20260508035409 48 38 0.0 1.7 0.00 0.00 0.00 97 1008.8
20260508034909 48 38 0.0 0.0 0.00 0.00 0.00 97 1008.8
20260508034409 48 38 0.0 0.9 0.00 0.00 0.00 97 1008.8
20260508033910 48 38 0.9 1.7 0.00 0.00 0.00 97 1008.7
20260508032911 48 38 1.7 2.6 0.00 0.00 0.00 97 1008.9
20260508031909 48 38 0.0 1.7 0.00 0.00 0.00 96 1008.9
20260508031410 48 38 0.0 0.0 0.00 0.00 0.00 96 1009.0
20260508030909 48 38 0.0 0.0 0.00 0.00 0.00 97 1009.1
20260508030410 48 38 0.0 0.0 0.00 0.00 0.00 97 1009.1
20260508025910 48 38 0.0 1.7 0.00 0.00 0.00 97 1009.0
20260508025410 48 38 0.9 1.7 0.00 0.00 0.00 97 1009.0
20260508024909 48 38 0.9 1.7 0.00 0.00 0.00 96 1009.0
20260508024409 49 38 0.0 2.6 0.00 0.00 0.00 97 1009.2
20260508023909 49 38 0.9 1.7 0.00 0.00 0.00 97 1009.2
20260508023409 49 38 1.7 2.6 0.00 0.00 0.00 96 1009.2
20260508022409 48 38 0.9 2.6 0.00 0.00 0.00 96 1009.4
20260508021910 48 38 1.7 4.3 0.00 0.00 0.00 96 1009.3
20260508021409 48 38 0.9 2.6 0.00 0.00 0.00 96 1009.4
20260508020909 48 38 0.0 0.9 0.00 0.00 0.00 96 1009.5
20260508020409 48 38 0.9 1.7 0.00 0.00 0.00 96 1009.6
20260508015911 48 38 0.0 0.0 0.00 0.00 0.00 96 1009.6
20260508015410 48 38 0.0 0.0 0.00 0.00 0.00 96 1009.6
20260508014910 48 38 0.0 0.0 0.00 0.00 0.00 96 1009.6
20260508014409 48 38 0.0 0.0 0.00 0.00 0.00 96 1009.8
20260508013909 48 38 0.0 0.0 0.00 0.00 0.00 95 1009.6
20260508013410 48 38 0.0 0.0 0.00 0.00 0.00 95 1009.7
20260508012409 48 38 0.0 0.0 0.00 0.00 0.00 95 1009.9
20260508011910 48 38 0.0 0.9 0.00 0.00 0.00 95 1009.9
20260508011409 48 38 0.0 1.7 0.00 0.00 0.00 95 1009.9
20260508005910 48 38 0.0 0.0 0.00 0.00 0.00 94 1010.0
20260508005409 48 38 0.0 0.0 0.00 0.00 0.00 94 1010.1
20260508004910 48 38 0.0 0.0 0.00 0.00 0.00 94 1010.1
20260508004409 49 38 0.0 0.0 0.00 0.00 0.00 94 1010.2
20260508003910 49 38 0.0 0.0 0.00 0.00 0.00 94 1010.3
20260508003409 49 38 0.0 0.0 0.00 0.00 0.00 94 1010.4
20260508002910 49 38 0.0 0.0 0.00 0.00 0.00 93 1010.4
20260508002410 49 38 0.0 0.0 0.00 0.00 0.00 93 1010.5
20260508001410 49 38 0.0 0.0 0.00 0.00 0.00 93 1010.5
20260508000910 49 38 0.0 0.0 0.00 0.00 0.00 93 1010.6
20260508000409 49 38 0.0 0.9 0.00 0.00 0.00 94 1010.6
20260507235911 49 38 0.0 0.9 0.00 0.00 0.00 94 1010.6
20260507235409 49 38 0.0 1.7 0.00 0.00 0.00 93 1010.6
20260507234910 50 38 1.7 2.6 0.00 0.00 0.00 93 1010.7
20260507234409 50 38 0.9 4.3 0.00 0.00 0.00 93 1010.8
20260507233909 50 37 0.9 4.3 0.00 0.00 0.00 92 1010.8
20260507233409 50 284 0.0 1.7 0.00 0.00 0.00 92 1010.9
20260507232910 50 284 0.9 1.7 0.00 0.00 0.00 92 1010.8
20260507232409 50 284 0.9 1.7 0.00 0.00 0.00 92 1010.9
20260507231909 50 284 0.0 1.7 0.00 0.00 0.00 92 1010.9
20260507231409 50 284 0.9 1.7 0.00 0.00 0.00 92 1010.9
20260507230909 50 284 0.9 1.7 0.00 0.00 0.00 92 1010.9
20260507230410 50 284 0.9 2.6 0.00 0.00 0.00 92 1010.9
20260507225910 50 284 1.7 4.3 0.00 0.00 0.00 92 1011.0
20260507225409 51 284 0.0 2.6 0.00 0.00 0.00 92 1010.9
20260507224909 51 283 0.0 0.9 0.00 0.00 0.00 92 1011.0
20260507224410 51 283 0.0 0.0 0.00 0.00 0.00 92 1011.1
20260507223910 51 283 0.0 0.0 0.00 0.00 0.00 92 1011.2
20260507223409 51 283 0.0 0.0 0.00 0.00 0.00 91 1011.2
20260507222911 51 283 0.0 0.0 0.00 0.00 0.00 91 1011.3
20260507222409 51 283 0.0 0.0 0.00 0.00 0.00 91 1011.3
20260507221909 51 283 0.0 0.0 0.00 0.00 0.00 91 1011.3
20260507221409 52 283 0.0 0.0 0.00 0.00 0.00 91 1011.4
20260507220909 52 283 0.0 1.7 0.00 0.00 0.00 91 1011.4
20260507220409 52 283 0.9 2.6 0.00 0.00 0.00 91 1011.4
20260507215910 52 283 1.7 2.6 0.00 0.00 0.00 91 1011.5
20260507215409 52 283 1.7 4.3 0.00 0.00 0.00 90 1011.5
20260507213909 52 284 2.6 6.1 0.00 0.00 0.00 89 1011.5
20260507213409 52 239 0.0 1.7 0.00 0.00 0.00 89 1011.5
20260507212410 53 239 0.0 0.0 0.00 0.00 0.00 88 1011.6
20260507211909 53 239 0.0 2.6 0.00 0.00 0.00 87 1011.6
20260507211410 53 239 4.3 6.1 0.00 0.00 0.00 87 1011.5
20260507210909 53 239 4.3 7.0 0.00 0.00 0.00 87 1011.4
20260507210409 53 238 4.3 7.0 0.00 0.00 0.00 86 1011.4
20260507205910 53 246 5.2 7.8 0.00 0.00 0.00 86 1011.3
20260507204909 54 240 2.6 6.1 0.00 0.00 0.00 85 1011.3
20260507204409 54 242 5.2 7.8 0.00 0.00 0.00 85 1011.1
20260507203910 54 242 5.2 7.8 0.00 0.00 0.00 84 1011.1
20260507203409 54 235 4.3 7.0 0.00 0.00 0.00 83 1011.0
20260507202910 55 254 4.3 6.1 0.00 0.00 0.00 83 1011.0
20260507201910 55 256 2.6 6.1 0.00 0.00 0.00 81 1010.8
20260507201410 55 237 6.1 7.8 0.00 0.00 0.00 81 1010.7
20260507200910 55 238 6.1 8.7 0.00 0.00 0.00 79 1010.6
20260507200409 56 201 5.2 7.8 0.00 0.00 0.00 79 1010.5
20260507195910 56 219 4.3 6.1 0.00 0.00 0.00 78 1010.5
20260507195409 56 236 3.5 5.2 0.00 0.00 0.00 78 1010.4
20260507193909 57 248 4.3 7.0 0.00 0.00 0.00 76 1010.2
20260507193409 57 237 4.3 7.8 0.00 0.00 0.00 75 1010.1
20260507192910 58 230 5.2 8.7 0.00 0.00 0.00 74 1010.0
20260507192410 58 223 4.3 5.2 0.00 0.00 0.00 74 1009.9
20260507191910 58 223 5.2 7.8 0.00 0.00 0.00 74 1009.9
20260507191409 59 243 5.2 7.8 0.00 0.00 0.00 74 1009.9
20260507190909 59 245 5.2 7.8 0.00 0.00 0.00 73 1009.8
20260507190410 59 237 6.1 8.7 0.00 0.00 0.00 73 1009.8
20260507185410 59 245 5.2 8.7 0.00 0.00 0.00 72 1009.8
20260507184909 60 248 6.1 10.4 0.00 0.00 0.00 72 1009.8
20260507184410 60 231 7.8 11.3 0.00 0.00 0.00 73 1009.8
20260507183910 60 238 5.2 8.7 0.00 0.00 0.00 73 1009.6
20260507183409 60 244 6.1 11.3 0.00 0.00 0.00 73 1009.6
20260507182910 60 238 6.1 12.2 0.00 0.00 0.00 73 1009.6
20260507182410 60 240 6.1 12.2 0.00 0.00 0.00 72 1009.6
20260507181909 60 245 7.8 11.3 0.00 0.00 0.00 72 1009.5
20260507181409 60 256 6.1 10.4 0.00 0.00 0.00 72 1009.6
20260507180909 60 230 6.1 8.7 0.00 0.00 0.00 73 1009.5
20260507180410 61 240 7.8 10.4 0.00 0.00 0.00 72 1009.4
20260507175910 61 241 7.0 11.3 0.00 0.00 0.00 72 1009.4
20260507175410 61 241 7.8 12.2 0.00 0.00 0.00 71 1009.3
20260507174910 61 250 8.7 17.4 0.00 0.00 0.00 71 1009.3
20260507174410 61 247 7.8 15.6 0.00 0.00 0.00 71 1009.3
20260507173909 62 238 7.0 13.0 0.00 0.00 0.00 71 1009.2
20260507173410 62 249 7.8 17.4 0.00 0.00 0.00 71 1009.3
20260507172910 62 248 11.3 18.2 0.00 0.00 0.00 71 1009.3
20260507172410 62 246 9.6 15.6 0.00 0.00 0.00 71 1009.3
20260507171910 63 239 10.4 17.4 0.00 0.00 0.00 70 1009.3
20260507171409 63 238 8.7 19.1 0.00 0.00 0.00 70 1009.3
20260507170409 63 248 10.4 15.6 0.00 0.00 0.00 71 1009.2
20260507165910 63 240 8.7 18.2 0.00 0.00 0.00 69 1009.2
20260507165409 64 248 8.7 19.1 0.00 0.00 0.00 69 1009.2
20260507163910 64 253 7.8 13.9 0.00 0.00 0.00 70 1009.0
20260507163409 65 242 7.8 13.0 0.00 0.00 0.00 69 1009.1
20260507162911 65 241 8.7 13.0 0.00 0.00 0.00 68 1009.0
20260507162409 66 242 7.0 13.9 0.00 0.00 0.00 67 1009.0
20260507161409 65 229 7.8 13.0 0.00 0.00 0.00 67 1009.0
20260507160910 65 222 7.8 13.9 0.00 0.00 0.00 69 1009.0
20260507160409 64 241 7.0 13.0 0.00 0.00 0.00 73 1008.9
20260507155911 63 233 7.0 11.3 0.00 0.00 0.00 69 1009.0
20260507155410 63 229 7.0 11.3 0.00 0.00 0.00 70 1009.0
20260507154910 64 240 7.8 11.3 0.00 0.00 0.00 67 1009.0
20260507154409 65 226 6.1 13.0 0.00 0.00 0.00 69 1009.0
20260507153910 64 249 7.0 11.3 0.00 0.00 0.00 69 1009.0
20260507152910 65 228 8.7 12.2 0.00 0.00 0.00 70 1009.0
20260507152410 65 239 8.7 12.2 0.00 0.00 0.00 69 1009.1
20260507150410 64 238 7.8 12.2 0.00 0.00 0.00 73 1009.2
20260507145410 63 246 7.0 13.0 0.00 0.00 0.00 75 1009.3
20260507144410 64 226 7.8 15.6 0.00 0.00 0.00 74 1009.3
20260507143410 65 236 8.7 13.0 0.00 0.00 0.00 74 1009.4
20260507142911 64 238 9.6 19.1 0.00 0.00 0.00 75 1009.4
20260507141909 64 233 10.4 15.6 0.00 0.00 0.00 76 1009.4
20260507141409 63 234 7.8 12.2 0.00 0.00 0.00 76 1009.3
20260507140909 63 239 8.7 18.2 0.00 0.00 0.00 76 1009.4
20260507140410 63 236 8.7 13.0 0.00 0.00 0.00 76 1009.5
20260507135911 64 239 7.8 15.6 0.00 0.00 0.00 75 1009.3
20260507134909 64 247 8.7 19.1 0.00 0.00 0.00 74 1009.3
20260507134409 65 265 7.8 13.9 0.00 0.00 0.00 74 1009.3
20260507133910 64 238 7.8 12.2 0.00 0.00 0.00 78 1009.3
20260507133410 63 244 6.1 10.4 0.00 0.00 0.00 76 1009.3
20260507132911 63 239 7.8 13.0 0.00 0.00 0.00 75 1009.4
20260507132410 63 239 7.8 17.4 0.00 0.00 0.00 75 1009.4
20260507131909 63 238 8.7 17.4 0.00 0.00 0.00 76 1009.3
20260507130910 63 256 7.0 11.3 0.00 0.00 0.00 74 1009.4
20260507130409 63 247 7.0 13.0 0.00 0.00 0.00 73 1009.4
20260507124910 64 241 7.8 17.4 0.00 0.00 0.00 73 1009.5
20260507124409 65 236 7.8 17.4 0.00 0.00 0.00 72 1009.4
20260507123910 66 237 8.7 15.6 0.00 0.00 0.00 70 1009.4
20260507123410 66 233 10.4 17.4 0.00 0.00 0.00 70 1009.5
20260507122911 65 243 8.7 17.4 0.00 0.00 0.00 72 1009.6
20260507122410 66 240 10.4 18.2 0.00 0.00 0.00 71 1009.6
20260507121910 67 235 7.8 13.9 0.00 0.00 0.00 70 1009.7
20260507121410 65 225 7.8 13.0 0.00 0.00 0.00 76 1009.7
20260507120909 64 237 7.8 13.0 0.00 0.00 0.00 74 1009.8
20260507120409 64 247 7.8 13.9 0.00 0.00 0.00 73 1009.7
20260507115910 65 248 7.0 13.0 0.00 0.00 0.00 71 1009.8
20260507114909 65 250 7.0 10.4 0.00 0.00 0.00 74 1009.8
20260507114409 63 246 7.8 13.9 0.00 0.00 0.00 72 1009.8
20260507113910 64 235 5.2 12.2 0.00 0.00 0.00 73 1009.9
20260507113409 65 252 7.8 13.0 0.00 0.00 0.00 70 1009.9
20260507112911 66 241 8.7 13.9 0.00 0.00 0.00 68 1009.8
20260507111910 63 246 6.1 10.4 0.00 0.00 0.00 70 1009.8
20260507111410 63 235 7.0 11.3 0.00 0.00 0.00 67 1009.9
20260507110910 64 235 8.7 15.6 0.00 0.00 0.00 64 1009.8
20260507105911 64 235 6.1 8.7 0.00 0.00 0.00 65 1009.9
20260507104410 65 224 6.1 10.4 0.00 0.00 0.00 67 1009.9
20260507103909 64 256 5.2 7.8 0.00 0.00 0.00 67 1009.9
20260507103410 64 69 0.9 2.6 0.00 0.00 0.00 68 1009.9
20260507102910 63 69 0.0 1.7 0.00 0.00 0.00 68 1009.9
20260507102409 63 69 0.0 0.9 0.00 0.00 0.00 69 1010.0
20260507101910 63 69 0.0 1.7 0.00 0.00 0.00 67 1010.0
20260507101410 62 69 0.0 0.0 0.00 0.00 0.00 70 1010.0
20260507100909 61 69 0.0 0.0 0.00 0.00 0.00 67 1010.0